EW7535 Weather Reports


time (UTC)temp
C
wind
direction
speed
KPH
gust
KPH
rain 1hr
cm
rain 24hr
cm
rain mn
cm
humidity
%
barometer
mb
20260904094504 26 94 1.6 8.0 0.00 0.10 0.00 68 1008.3
20260904093031 26 75 0.0 0.0 0.00 0.10 0.00 69 1008.3
20260904091529 26 131 1.6 9.7 0.00 0.10 0.00 67 1008.2
20260904090057 26 97 1.6 6.4 0.00 0.10 0.00 68 1008.2
20260904084557 25 111 0.0 0.0 0.00 0.10 0.00 69 1008.2
20260904083025 26 103 0.0 6.4 0.00 0.10 0.00 68 1008.2
20260904081525 26 113 0.0 3.2 0.00 0.10 0.00 68 1008.2
20260904080054 26 134 0.0 1.6 0.00 0.10 0.00 68 1008.2
20260904074607 25 115 0.0 3.2 0.00 0.10 0.00 69 1008.3
20260904073102 26 116 0.0 0.0 0.00 0.10 0.10 69 1008.3
20260904071549 26 117 0.0 4.8 0.00 0.10 0.10 67 1008.4
20260904070104 26 86 0.0 3.2 0.00 0.10 0.10 67 1008.5
20260904064547 26 85 1.6 6.4 0.00 0.10 0.10 66 1008.5
20260904063045 26 102 0.0 6.4 0.00 0.10 0.10 65 1008.5
20260904061544 26 124 0.0 8.0 0.00 0.10 0.10 64 1008.4
20260904060044 26 106 0.0 4.8 0.00 0.10 0.10 64 1008.3
20260904054546 27 93 1.6 8.0 0.00 0.10 0.10 64 1008.2
20260904053042 27 120 1.6 9.7 0.00 0.10 0.10 64 1008.1
20260904051541 27 113 0.0 4.8 0.00 0.10 0.10 64 1008.2
20260904050040 27 122 0.0 4.8 0.00 0.10 0.10 63 1008.3
20260904044539 27 129 0.0 9.7 0.00 0.10 0.10 62 1008.2
20260904043053 27 110 0.0 3.2 0.00 0.10 0.10 61 1008.4
20260904041536 27 105 0.0 1.6 0.00 0.10 0.10 61 1008.4
20260904040036 27 110 1.6 8.0 0.00 0.10 0.10 61 1008.2
20260904034539 28 84 4.8 11.3 0.00 0.10 0.10 61 1008.1
20260904033004 28 127 3.2 9.7 0.00 0.10 0.10 61 1008.0
20260904031504 28 105 4.8 11.3 0.00 0.10 0.10 61 1007.7
20260904030104 28 109 3.2 9.7 0.00 0.10 0.10 61 1007.3
20260904024534 28 129 3.2 8.0 0.00 0.10 0.10 62 1007.0
20260904023032 28 127 3.2 8.0 0.00 0.10 0.10 62 1006.9
20260904021537 28 113 3.2 6.4 0.00 0.10 0.10 61 1006.9
20260904020033 28 83 1.6 12.9 0.00 0.10 0.10 60 1006.7
20260904020030 28 85 1.6 12.9 0.00 0.10 0.10 60 1006.7
20260904014530 28 124 0.0 8.0 0.00 0.10 0.10 60 1006.4
20260904013030 29 116 3.2 8.0 0.00 0.10 0.10 58 1006.3
20260904011531 30 176 3.2 11.3 0.00 0.10 0.10 57 1005.8
20260904010026 30 224 0.0 4.8 0.00 0.10 0.10 61 1005.8
20260904004524 30 197 0.0 4.8 0.00 0.10 0.10 60 1005.9
20260904003024 29 260 0.0 3.2 0.08 0.10 0.10 63 1005.9
20260904001522 28 116 0.0 0.0 0.10 0.10 0.10 71 1005.8
20260904000103 27 127 0.0 0.0 0.10 0.10 0.10 80 1005.9
20260903234519 27 116 0.0 1.6 0.10 0.10 0.10 77 1005.9
20260903233017 29 226 0.0 6.4 0.03 0.03 0.03 67 1006.2
20260903231513 31 274 4.8 8.0 0.00 0.00 0.00 51 1006.1
20260903230021 32 203 0.0 3.2 0.00 0.00 0.00 50 1006.1
20260903224532 32 250 1.6 8.0 0.00 0.00 0.00 45 1006.0
20260903223012 32 267 6.4 16.1 0.00 0.00 0.00 45 1005.9
20260903221551 32 297 0.0 11.3 0.00 0.00 0.00 45 1006.1
20260903220038 34 295 4.8 14.5 0.00 0.00 0.00 43 1006.2
20260903214537 35 250 3.2 8.0 0.00 0.00 0.00 41 1006.4
20260903213036 35 252 4.8 9.7 0.00 0.00 0.00 40 1006.5
20260903211538 33 285 6.4 11.3 0.00 0.00 0.00 42 1006.6
20260903210031 33 304 0.0 8.0 0.00 0.00 0.00 44 1006.9
20260903204557 33 6 3.2 14.5 0.00 0.00 0.00 43 1007.0
20260903203055 35 134 1.6 8.0 0.00 0.00 0.00 43 1007.3
20260903201550 33 150 0.0 6.4 0.00 0.00 0.00 44 1007.6
20260903200048 33 269 3.2 6.4 0.00 0.00 0.00 44 1007.9
20260903194551 32 291 3.2 8.0 0.00 0.00 0.00 48 1008.1
20260903193050 33 124 0.0 4.8 0.00 0.00 0.00 45 1008.3
20260903191545 33 203 1.6 8.0 0.00 0.00 0.00 45 1008.6
20260903190047 33 200 4.8 9.7 0.00 0.00 0.00 46 1008.8
20260903184533 31 253 0.0 6.4 0.00 0.00 0.00 50 1009.1
20260903183032 31 276 1.6 3.2 0.00 0.00 0.00 50 1009.4
20260903181540 32 209 0.0 6.4 0.00 0.00 0.00 52 1009.6
20260903180025 31 117 1.6 8.0 0.00 0.00 0.00 52 1009.8
20260903174523 31 86 0.0 4.8 0.00 0.00 0.00 54 1010.0
20260903173019 30 152 1.6 9.7 0.00 0.00 0.00 54 1010.1
20260903171547 30 120 3.2 8.0 0.00 0.00 0.00 57 1010.1
20260903170054 28 107 0.0 6.4 0.00 0.00 0.00 60 1010.1
20260903164539 28 110 3.2 9.7 0.00 0.00 0.00 59 1010.1
20260903163047 28 122 3.2 11.3 0.00 0.00 0.00 60 1010.1
20260903161535 27 92 3.2 8.0 0.00 0.00 0.00 62 1010.1
20260903160033 27 124 0.0 3.2 0.00 0.00 0.00 64 1010.1
20260903154531 27 124 1.6 4.8 0.00 0.00 0.00 64 1010.1
20260903153029 27 120 0.0 6.4 0.00 0.00 0.00 65 1010.1
20260903151526 26 295 0.0 0.0 0.00 0.00 0.00 68 1010.2
20260903150034 26 295 0.0 1.6 0.00 0.00 0.00 70 1010.1
20260903144555 25 288 4.8 9.7 0.00 0.00 0.00 71 1010.1
20260903143059 25 297 1.6 8.0 0.00 0.00 0.00 71 1010.1
20260903141556 25 304 3.2 14.5 0.00 0.00 0.00 70 1010.2
20260903140050 25 296 3.2 11.3 0.00 0.00 0.00 67 1010.2
20260903134548 25 115 0.0 0.0 0.00 0.00 0.00 72 1010.1
20260903133047 25 116 0.0 0.0 0.00 0.00 0.00 72 1010.0
20260903131545 25 115 0.0 0.0 0.00 0.00 0.00 71 1010.0
20260903130041 25 115 0.0 0.0 0.00 0.00 0.00 70 1009.7
20260903124539 25 115 0.0 0.0 0.00 0.00 0.00 68 1009.7
20260903123038 25 143 0.0 0.0 0.00 0.00 0.00 68 1009.3
20260903121538 25 108 0.0 4.8 0.00 0.00 0.00 69 1009.2
20260903120040 25 93 0.0 4.8 0.00 0.00 0.00 69 1009.2
20260903114534 25 111 0.0 4.8 0.00 0.00 0.00 69 1009.0
20260903113033 25 89 0.0 6.4 0.00 0.00 0.00 69 1008.9
20260903111534 26 85 1.6 9.7 0.00 0.00 0.00 69 1009.0
20260903110029 26 112 3.2 8.0 0.00 0.00 0.00 69 1009.0
20260903104528 26 96 0.0 8.0 0.00 0.00 0.00 70 1008.9
20260903103027 25 120 1.6 8.0 0.00 0.00 0.00 70 1009.0
20260903101527 26 92 3.2 6.4 0.00 0.00 0.00 70 1009.1
20260903100026 26 120 0.0 4.8 0.00 0.00 0.00 70 1009.1